Погода в Южном

Казахстан     49°21′40″N   72°54′17″E
темп.,
°C
ветер,
м/с
пор.,
м/с
влажн.,
%
обл.,
%
осадки,
мм/ч
давл.,
гПа
погр.,
м
5 августа, чт
чт500:00+18св33570 0.0 101222
03:00+15св12665 0.0 101211
06:00+14св226843 0.0 101315
09:00+21ссв45485 0.0 1012917
12:00+24ссв56320 0.0 10121849
15:00+27с66275 0.0 10112434
18:00+27с66255 0.0 10102523
21:00+21ссв45365 0.0 101151
6 августа, пт
пт600:00+16в33500 0.0 101219
03:00+15вюв22545 0.0 101211
06:00+14вюв22570 0.0 101211
09:00+22юв23355 0.0 1012637
12:00+26всв24280 0.0 10122247
15:00+29с442541 0.0 10102825
18:00+29ссв5625100 0.0 10102678
21:00+23вюв3337100 0.0 101020
7 августа, сб
сб700:00+19юв11470 0.0 101011
03:00+18ююв11495 0.0 101011
06:00+18ю22495 0.0 101011
09:00+26ююв11315 0.0 1010473
12:00+30с2326100 0.0 10103058
15:00+31св2224100 0.0 10093132
18:00+31ссв5325100 0.1 10092074
21:00+23всв114029 0.0 100911
8 августа, вс
вс800:00+21сз5105530 0.6 1011211
03:00+18в387364 0.1 1011158
06:00+18юв22706 0.3 101122
09:00+26з134044 0.0 1011456
12:00+30ссз4528100 0.0 10102204
15:00+31ссз562981 0.0 10102178
18:00+31сз78275 0.0 10102967
21:00+23ссв611565 0.0 1012360
9 августа, пн
пн900:00+19всв33735 0.0 101335
03:00+17всв228012 0.0 101313
06:00+15ссз22815 0.0 101311
09:00+22сз34440 0.0 1013665
12:00+26сз55240 0.0 10121856
15:00+27ссз77190 0.0 10122130
18:00+25ссз881897 0.0 10121889
21:00+18с3330100 0.0 101445